Weather in Akademicheskiy

Russia / Tver Oblast     57°42′45″N   34°19′01″E
temp.,
°C
wind,
m/s
gust,
m/s
humid.,
%
clouds,
%
prec.,
mm/h
press.,
hPa
HPBL,
m
19 april, mon
mon1900:00+7ene4117279 0.0 1026486
03:00+5ene3979100 0.0 1027402
06:00+3ne388984 0.0 1027359
09:00+7ene467477 0.0 1027660
12:00+8e4664100 0.0 10261107
15:00+9e4655100 0.0 10261455
18:00+9e464779 0.0 10251683
21:00+5ene3106280 0.0 1026329
20 april, tue
tue2000:00+4ene396767 0.0 1026440
03:00+2ene4107776 0.0 1025381
06:000ene3107594 0.0 1024401
09:00+4e58578 0.0 1024791
12:00+7e575591 0.0 10221236
15:00+8ese5859100 0.0 10201401
18:00+4e4989100 0.1 1019880
21:00+3e41096100 0.3 1018675
21 april, wed
wed2100:00+3ene31097100 0.4 1014730
03:00+3ene41097100 1.8 1011751
06:00+1ne41097100 2.4 1007484
09:00+1ne3899100 6.1 1005343
12:00+2ene2498100 1.1 1002277
15:00+2w1199100 2.1 1002139
18:00+2wsw2699100 0.4 1002291
21:00+1sw3897100 0.6 1004559
22 april, thu
thu2200:00+2ssw3998100 0.1 1004785
03:00+3sw41098100 1.1 1005955
06:00+3sw3998100 1.6 1006786
09:00+3sw3996100 2.6 1008696
12:00+8wsw3677100 0.1 10101033
15:00+11wsw3762100 0.1 10111521
18:00+11ssw127154 0.1 1012220
21:00+6sse22895 0.1 101321
23 april, fri
fri2300:00+5sse259311 0.0 101397
03:00+4se389648 0.0 1012174
06:00+4sse399790 0.0 1011222
09:00+10sse5137769 0.0 1010663
12:00+14s61268100 0.2 10091568
15:00+14ssw5127198 1.3 10081781
18:00+5wnw5791100 1.6 1009537
21:00+3w3596100 7.8 1010407